Rogers City, MI

11:30 PM EDT on August 31, 2016 (GMT -0400)
Presque Isle County

Weather History for KPZQ - June, 2013

Change the Weather History Date:

Tuesday, June 11, 2013

  Actual Average (KAPN) Record (KAPN)
Temperature  
Mean Temperature 61 °F 61 °F  
Max Temperature 68 °F 73 °F 93 °F (1973)
Min Temperature 54 °F 49 °F 30 °F (1980)
Degree Days  
Heating Degree Days 4 6  
Month to date heating degree days 76  
Since 1 June heating degree days 76  
Since 1 July heating degree days 8033  
Cooling Degree Days 0 2  
Month to date cooling degree days 12  
Year to date cooling degree days 25  
Since 1 June cooling degree days 12  
Growing Degree Days 11 (Base 50)    
Moisture  
Dew Point 57 °F    
Average Humidity 92    
Maximum Humidity 97    
Minimum Humidity 79    
Precipitation  
Precipitation 0.00 in 0.08 in 1.08 in (1962)
Month to date precipitation 0.94  
Year to date precipitation 10.84  
Sea Level Pressure  
Sea Level Pressure 29.86 in    
Wind  
Wind Speed 2 mph (NE)    
Max Wind Speed 9 mph    
Max Gust Speed -    
Visibility 6 miles    
Events Fog , Rain    
T = Trace of Precipitation, MM = Missing Value Source: NWS Daily Summary

Daily Weather History Graph

Daily Weather History Graph

Search for Another Location

Airport or City:

Trip Planner

Search our weather history database for the weather conditions in past years. The results will help you decide how hot, cold, wet, or windy it might be!

Date:

Astronomy

Jun. 11, 2013 Rise Set
Actual Time 5:46 AM EDT 9:23 PM EDT
Civil Twilight 5:08 AM EDT 10:01 PM EDT
Nautical Twilight 4:18 AM EDT 10:51 PM EDT
Astronomical Twilight 3:12 AM EDT 11:58 PM EDT
Moon 8:34 AM EDT (6/11) 11:18 PM EDT (6/11)
Length of Visible Light 16h 52m
Length of Day
15h 37m
Waxing Crescent, 8% of the Moon is Illuminated
Jun 11
Waxing Crescent
Jun 16
First Quarter
Jun 23
Full
Jun 30
Last Quarter
Jul 8
New

Hourly Weather History & Observations

Time (EDT) Temp. Dew Point Humidity Pressure Visibility Wind Dir Wind Speed Gust Speed Precip Events Conditions
12:15 AM 54.7 °F 53.6 °F 96% 29.85 in 2.0 mi Calm Calm - N/A   Drizzle
12:35 AM 54.9 °F 54.0 °F 97% 29.84 in 2.0 mi Calm Calm - N/A Rain Light Rain
12:55 AM 55.4 °F 54.5 °F 97% 29.85 in 2.0 mi WNW 3.5 mph - N/A   Drizzle
1:14 AM 55.6 °F 54.5 °F 96% 29.84 in 2.0 mi West 3.5 mph - N/A   Drizzle
1:35 AM 56.1 °F 54.9 °F 96% 29.84 in 2.0 mi Calm Calm - N/A   Light Drizzle
1:55 AM 56.1 °F 55.0 °F 96% 29.84 in 2.5 mi Calm Calm - N/A Rain Light Rain
2:14 AM 56.3 °F 55.4 °F 97% 29.83 in 2.5 mi Calm Calm - N/A Rain Rain
2:35 AM 55.8 °F 54.7 °F 96% 29.83 in 4.0 mi NNW 3.5 mph - N/A   Overcast
2:55 AM 55.6 °F 54.5 °F 96% 29.83 in 2.0 mi Calm Calm - N/A   Overcast
3:15 AM 56.3 °F 55.2 °F 96% 29.83 in 1.2 mi Calm Calm - N/A   Overcast
3:35 AM 56.3 °F 55.4 °F 97% 29.84 in 1.2 mi West 3.5 mph - N/A   Overcast
3:55 AM 56.3 °F 55.2 °F 96% 29.84 in 1.2 mi Calm Calm - N/A   Overcast
4:15 AM 56.3 °F 55.4 °F 97% 29.84 in 1.5 mi Calm Calm - N/A   Overcast
4:35 AM 56.7 °F 55.6 °F 96% 29.83 in 1.2 mi Calm Calm - N/A   Overcast
4:54 AM 56.3 °F 55.4 °F 97% 29.84 in 1.0 mi Calm Calm - N/A   Overcast
5:15 AM 56.3 °F 55.0 °F 96% 29.85 in 1.0 mi Calm Calm - N/A   Overcast
5:35 AM 55.6 °F 54.7 °F 97% 29.85 in 1.0 mi WNW 3.5 mph - N/A   Overcast
5:54 AM 55.8 °F 54.9 °F 97% 29.85 in 2.5 mi Calm Calm - N/A   Overcast
6:15 AM 56.1 °F 55.2 °F 97% 29.86 in 3.0 mi Calm Calm - N/A   Overcast
6:35 AM 56.8 °F 55.9 °F 97% 29.87 in 5.0 mi Calm Calm - N/A   Overcast
6:55 AM 56.8 °F 55.8 °F 96% 29.87 in 5.0 mi WNW 3.5 mph - N/A   Overcast
7:15 AM 57.2 °F 55.9 °F 96% 29.87 in 0.8 mi Calm Calm - N/A   Overcast
7:35 AM 57.2 °F 56.3 °F 97% 29.88 in 0.5 mi WNW 4.6 mph - N/A Fog Fog
7:55 AM 57.4 °F 56.3 °F 96% 29.88 in 0.2 mi NW 3.5 mph - N/A Fog Fog
8:15 AM 57.6 °F 56.5 °F 96% 29.88 in 0.5 mi Calm Calm - N/A Fog Fog
8:35 AM 57.9 °F 57.0 °F 97% 29.89 in 0.2 mi Calm Calm - N/A Fog Fog
8:55 AM 59.0 °F 57.7 °F 96% 29.89 in 0.5 mi Calm Calm - N/A Fog Fog
9:15 AM 59.2 °F 58.3 °F 97% 29.89 in 0.8 mi Calm Calm - N/A   Overcast
9:35 AM 60.4 °F 59.4 °F 96% 29.89 in 5.0 mi NE 3.5 mph - N/A   Overcast
9:55 AM 57.4 °F 56.3 °F 96% 29.89 in 0.2 mi Calm Calm - N/A Fog Fog
10:14 AM 59.5 °F 58.6 °F 97% 29.89 in 1.8 mi Calm Calm - N/A   Overcast
10:35 AM 60.8 °F 59.5 °F 96% 29.89 in 7.0 mi Calm Calm - N/A   Overcast
10:54 AM 61.7 °F 60.4 °F 96% 29.88 in 10.0 mi ESE 3.5 mph - N/A   Overcast
11:15 AM 62.1 °F 60.8 °F 96% 29.88 in 10.0 mi Calm Calm - N/A   Overcast
11:35 AM 62.4 °F 60.6 °F 94% 29.88 in 7.0 mi Calm Calm - N/A   Overcast
11:54 AM 63.3 °F 61.0 °F 92% 29.87 in 10.0 mi ENE 4.6 mph - N/A   Overcast
12:15 PM 64.0 °F 61.0 °F 90% 29.88 in 10.0 mi North 3.5 mph - N/A   Overcast
12:35 PM 63.0 °F 59.9 °F 90% 29.88 in 10.0 mi NNE 3.5 mph - N/A   Overcast
12:55 PM 63.5 °F 60.1 °F 89% 29.88 in 10.0 mi NE 3.5 mph - N/A   Overcast
1:15 PM 63.1 °F 59.2 °F 87% 29.87 in 10.0 mi NNE 3.5 mph - N/A   Overcast
1:35 PM 64.2 °F 60.3 °F 87% 29.87 in 10.0 mi NE 5.8 mph - N/A   Mostly Cloudy
1:55 PM 64.9 °F 60.3 °F 85% 29.87 in 10.0 mi NE 5.8 mph - N/A   Mostly Cloudy
2:15 PM 65.7 °F 60.4 °F 83% 29.86 in 10.0 mi NNE 6.9 mph - N/A   Scattered Clouds
2:34 PM 63.9 °F 58.6 °F 83% 29.86 in 10.0 mi NE 6.9 mph - N/A   Mostly Cloudy
2:55 PM 63.1 °F 58.8 °F 86% 29.85 in 10.0 mi ENE 8.1 mph - N/A   Overcast
3:15 PM 63.7 °F 59.2 °F 85% 29.85 in 10.0 mi ENE 6.9 mph - N/A   Overcast
3:34 PM 62.2 °F 58.3 °F 87% 29.86 in 10.0 mi ENE 6.9 mph - N/A   Overcast
3:55 PM 65.8 °F 60.6 °F 83% 29.85 in 10.0 mi East 5.8 mph - N/A   Mostly Cloudy
4:15 PM 66.4 °F 60.3 °F 81% 29.84 in 10.0 mi East 4.6 mph - N/A   Mostly Cloudy
4:35 PM 68.0 °F 61.3 °F 79% 29.83 in 10.0 mi NNE 5.8 mph - N/A   Scattered Clouds
4:55 PM 64.9 °F 58.8 °F 81% 29.83 in 10.0 mi NE 5.8 mph - N/A   Scattered Clouds
5:15 PM 61.5 °F 57.2 °F 86% 29.84 in 10.0 mi ENE 9.2 mph - N/A   Mostly Cloudy
5:35 PM 60.3 °F 56.8 °F 88% 29.84 in 10.0 mi NE 6.9 mph - N/A   Overcast
5:55 PM 56.5 °F 54.0 °F 91% 29.84 in 5.0 mi ENE 9.2 mph - N/A   Overcast
6:14 PM 59.2 °F 57.0 °F 93% 29.83 in 10.0 mi East 5.8 mph - N/A Rain Light Rain
6:35 PM 61.9 °F 58.5 °F 89% 29.84 in 10.0 mi East 6.9 mph - N/A   Overcast
6:55 PM 61.9 °F 56.1 °F 81% 29.84 in 10.0 mi NNE 4.6 mph - N/A   Scattered Clouds
7:14 PM 59.7 °F 55.8 °F 87% 29.84 in 10.0 mi North 4.6 mph - N/A   Clear
7:35 PM 58.6 °F 55.6 °F 90% 29.85 in 10.0 mi Calm Calm - N/A   Mostly Cloudy
7:55 PM 58.1 °F 54.7 °F 88% 29.85 in 10.0 mi Calm Calm - N/A   Mostly Cloudy
8:15 PM 59.9 °F 56.3 °F 88% 29.86 in 10.0 mi WNW 4.6 mph - N/A   Mostly Cloudy
8:35 PM 55.2 °F 52.2 °F 89% 29.86 in 10.0 mi Calm Calm - N/A   Mostly Cloudy
8:54 PM 54.1 °F 52.0 °F 92% 29.86 in 10.0 mi Calm Calm - N/A   Mostly Cloudy
9:15 PM 54.7 °F 52.7 °F 93% 29.86 in 10.0 mi Calm Calm - N/A   Overcast
9:35 PM 55.6 °F 53.4 °F 92% 29.87 in 10.0 mi Calm Calm - N/A   Mostly Cloudy
9:54 PM 54.5 °F 52.2 °F 92% 29.87 in 10.0 mi Calm Calm - N/A   Scattered Clouds
10:15 PM 54.3 °F 52.5 °F 94% 29.88 in 10.0 mi Calm Calm - N/A   Mostly Cloudy
10:35 PM 55.2 °F 53.2 °F 93% 29.88 in 10.0 mi Calm Calm - N/A   Overcast
10:55 PM 57.2 °F 54.9 °F 92% 29.88 in 10.0 mi Calm Calm - N/A   Overcast
11:15 PM 57.2 °F 55.0 °F 92% 29.88 in 10.0 mi SE 4.6 mph - N/A   Overcast
11:35 PM 58.6 °F 56.3 °F 92% 29.88 in 10.0 mi South 3.5 mph - N/A   Mostly Cloudy
11:55 PM 59.2 °F 56.5 °F 91% 29.89 in 10.0 mi Calm Calm - N/A   Mostly Cloudy